| time (UTC) | temp C | wind direction | speed KPH | gust KPH | rain 1hr cm | rain 24hr cm | rain mn cm | humidity % | barometer mb |
| 20260505041703 | 15 | 241 | 6.4 | 14.5 | 0.00 | 0.05 | 0.00 | 79 | 999.6 |
| 20260505041203 | 15 | 229 | 6.4 | 14.5 | 0.00 | 0.05 | 0.00 | 80 | 999.6 |
| 20260505040704 | 15 | 229 | 6.4 | 14.5 | 0.00 | 0.05 | 0.00 | 80 | 999.6 |
| 20260505040446 | 15 | 219 | 6.4 | 14.5 | 0.00 | 0.05 | 0.00 | 80 | 999.6 |
| 20260505035702 | 15 | 238 | 6.4 | 14.5 | 0.00 | 0.05 | 0.05 | 80 | 999.6 |
| 20260505035444 | 15 | 233 | 6.4 | 14.5 | 0.00 | 0.05 | 0.05 | 81 | 999.7 |
| 20260505034702 | 15 | 235 | 6.4 | 14.5 | 0.00 | 0.05 | 0.05 | 81 | 999.8 |
| 20260505034445 | 16 | 207 | 6.4 | 16.1 | 0.00 | 0.05 | 0.05 | 80 | 999.9 |
| 20260505033702 | 16 | 150 | 8.0 | 16.1 | 0.00 | 0.05 | 0.05 | 79 | 999.8 |
| 20260505033203 | 16 | 211 | 6.4 | 14.5 | 0.00 | 0.05 | 0.05 | 78 | 999.8 |
| 20260505032703 | 16 | 230 | 6.4 | 14.5 | 0.00 | 0.05 | 0.05 | 78 | 1000.0 |
| 20260505032202 | 16 | 196 | 6.4 | 12.9 | 0.00 | 0.05 | 0.05 | 77 | 1000.0 |
| 20260505031702 | 16 | 91 | 6.4 | 16.1 | 0.00 | 0.05 | 0.05 | 77 | 1000.1 |
| 20260505031444 | 16 | 239 | 6.4 | 16.1 | 0.00 | 0.05 | 0.05 | 77 | 1000.1 |
| 20260505030702 | 16 | 225 | 6.4 | 16.1 | 0.00 | 0.05 | 0.05 | 78 | 1000.2 |
| 20260505030201 | 16 | 240 | 6.4 | 16.1 | 0.00 | 0.05 | 0.05 | 77 | 1000.3 |
| 20260505025946 | 16 | 218 | 6.4 | 14.5 | 0.00 | 0.05 | 0.05 | 77 | 1000.3 |
| 20260505025204 | 16 | 212 | 6.4 | 14.5 | 0.00 | 0.05 | 0.05 | 77 | 1000.4 |
| 20260505024702 | 16 | 207 | 8.0 | 16.1 | 0.00 | 0.05 | 0.05 | 77 | 1000.4 |
| 20260505024201 | 16 | 221 | 8.0 | 16.1 | 0.00 | 0.05 | 0.05 | 76 | 1000.3 |
| 20260505023701 | 16 | 225 | 8.0 | 17.7 | 0.00 | 0.05 | 0.05 | 76 | 1000.3 |
| 20260505023202 | 16 | 227 | 9.7 | 17.7 | 0.05 | 0.05 | 0.05 | 75 | 1000.3 |
| 20260505022701 | 16 | 266 | 9.7 | 29.0 | 0.05 | 0.05 | 0.05 | 75 | 1000.2 |
| 20260505022201 | 16 | 218 | 8.0 | 29.0 | 0.05 | 0.05 | 0.05 | 74 | 1000.3 |
| 20260505021701 | 16 | 215 | 8.0 | 17.7 | 0.05 | 0.05 | 0.05 | 75 | 1000.4 |
| 20260505021202 | 16 | 235 | 6.4 | 17.7 | 0.05 | 0.05 | 0.05 | 74 | 1000.2 |
| 20260505020702 | 16 | 229 | 6.4 | 14.5 | 0.05 | 0.05 | 0.05 | 75 | 1000.4 |
| 20260505020202 | 16 | 219 | 6.4 | 14.5 | 0.05 | 0.05 | 0.05 | 75 | 1000.5 |
| 20260505015702 | 16 | 183 | 6.4 | 14.5 | 0.05 | 0.05 | 0.05 | 76 | 1000.5 |
| 20260505015203 | 16 | 217 | 4.8 | 14.5 | 0.05 | 0.05 | 0.05 | 76 | 1000.5 |
| 20260505014703 | 16 | 221 | 3.2 | 14.5 | 0.05 | 0.05 | 0.05 | 76 | 1000.7 |
| 20260505014203 | 17 | 165 | 1.6 | 6.4 | 0.05 | 0.05 | 0.05 | 77 | 1000.9 |
| 20260505013950 | 17 | 0 | 1.6 | 8.0 | 0.05 | 0.05 | 0.05 | 75 | 1001.0 |
| 20260505013202 | 18 | 0 | 3.2 | 14.5 | 0.00 | 0.00 | 0.00 | 70 | 1000.9 |
| 20260505012703 | 18 | 295 | 3.2 | 14.5 | 0.00 | 0.00 | 0.00 | 68 | 1000.7 |
| 20260505012203 | 18 | 221 | 6.4 | 17.7 | 0.00 | 0.00 | 0.00 | 70 | 1000.4 |
| 20260505011703 | 18 | 261 | 8.0 | 17.7 | 0.00 | 0.00 | 0.00 | 68 | 999.7 |
| 20260505011203 | 18 | 226 | 6.4 | 16.1 | 0.00 | 0.00 | 0.00 | 68 | 999.7 |
| 20260505010702 | 18 | 216 | 6.4 | 14.5 | 0.00 | 0.00 | 0.00 | 68 | 999.2 |
| 20260505010202 | 18 | 189 | 4.8 | 16.1 | 0.00 | 0.00 | 0.00 | 67 | 998.9 |
| 20260505005950 | 18 | 201 | 4.8 | 16.1 | 0.00 | 0.00 | 0.00 | 67 | 998.9 |
| 20260505005202 | 18 | 224 | 4.8 | 14.5 | 0.00 | 0.00 | 0.00 | 66 | 999.0 |
| 20260505004702 | 19 | 189 | 4.8 | 9.7 | 0.00 | 0.00 | 0.00 | 66 | 999.0 |
| 20260505004202 | 19 | 234 | 4.8 | 12.9 | 0.00 | 0.00 | 0.00 | 65 | 998.9 |
| 20260505003702 | 19 | 220 | 4.8 | 12.9 | 0.00 | 0.00 | 0.00 | 64 | 998.9 |
| 20260505003202 | 20 | 222 | 4.8 | 12.9 | 0.00 | 0.00 | 0.00 | 64 | 998.9 |
| 20260505002702 | 20 | 224 | 4.8 | 11.3 | 0.00 | 0.00 | 0.00 | 63 | 999.0 |
| 20260505002238 | 20 | 242 | 6.4 | 12.9 | 0.00 | 0.00 | 0.00 | 62 | 999.0 |
| 20260505002228 | 20 | 241 | 4.8 | 11.3 | 0.00 | 0.00 | 0.00 | 62 | 999.0 |
| 20260505001203 | 20 | 194 | 6.4 | 16.1 | 0.00 | 0.00 | 0.00 | 61 | 999.0 |
| 20260505000702 | 20 | 300 | 6.4 | 20.9 | 0.00 | 0.00 | 0.00 | 61 | 999.1 |
| 20260505000204 | 20 | 228 | 6.4 | 20.9 | 0.00 | 0.00 | 0.00 | 60 | 999.1 |
| 20260504235949 | 21 | 203 | 6.4 | 20.9 | 0.00 | 0.00 | 0.00 | 60 | 999.0 |
| 20260504235202 | 21 | 246 | 6.4 | 17.7 | 0.00 | 0.00 | 0.00 | 59 | 999.1 |
| 20260504234703 | 21 | 253 | 8.0 | 17.7 | 0.00 | 0.00 | 0.00 | 58 | 999.0 |
| 20260504234203 | 21 | 231 | 8.0 | 17.7 | 0.00 | 0.00 | 0.00 | 58 | 999.0 |
| 20260504233702 | 21 | 221 | 8.0 | 22.5 | 0.00 | 0.00 | 0.00 | 58 | 999.0 |
| 20260504233202 | 21 | 266 | 8.0 | 22.5 | 0.00 | 0.00 | 0.00 | 57 | 998.9 |
| 20260504232703 | 21 | 227 | 8.0 | 16.1 | 0.00 | 0.00 | 0.00 | 57 | 999.1 |
| 20260504232203 | 21 | 200 | 9.7 | 17.7 | 0.00 | 0.00 | 0.00 | 56 | 999.1 |
| 20260504231703 | 21 | 222 | 9.7 | 24.1 | 0.00 | 0.00 | 0.00 | 54 | 999.1 |
| 20260504231203 | 22 | 214 | 11.3 | 24.1 | 0.00 | 0.00 | 0.00 | 54 | 999.2 |
| 20260504230704 | 22 | 233 | 11.3 | 22.5 | 0.00 | 0.00 | 0.00 | 53 | 999.2 |
| 20260504230203 | 22 | 218 | 9.7 | 22.5 | 0.00 | 0.00 | 0.00 | 52 | 999.3 |
| 20260504225704 | 22 | 200 | 8.0 | 22.5 | 0.00 | 0.00 | 0.00 | 51 | 999.4 |
| 20260504225204 | 22 | 284 | 8.0 | 22.5 | 0.00 | 0.00 | 0.00 | 51 | 999.5 |
| 20260504224704 | 22 | 196 | 9.7 | 20.9 | 0.00 | 0.00 | 0.00 | 52 | 999.6 |
| 20260504224448 | 22 | 154 | 9.7 | 20.9 | 0.00 | 0.00 | 0.00 | 50 | 999.7 |
| 20260504223703 | 22 | 220 | 9.7 | 19.3 | 0.00 | 0.00 | 0.00 | 50 | 999.7 |
| 20260504223203 | 22 | 182 | 9.7 | 19.3 | 0.00 | 0.00 | 0.00 | 52 | 999.8 |
| 20260504222704 | 22 | 154 | 11.3 | 22.5 | 0.00 | 0.00 | 0.00 | 53 | 999.9 |
| 20260504222203 | 22 | 225 | 11.3 | 22.5 | 0.00 | 0.00 | 0.00 | 53 | 999.9 |
| 20260504221738 | 22 | 268 | 11.3 | 25.7 | 0.00 | 0.00 | 0.00 | 53 | 999.9 |
| 20260504221728 | 22 | 196 | 11.3 | 25.7 | 0.00 | 0.00 | 0.00 | 53 | 999.9 |
| 20260504220949 | 22 | 223 | 11.3 | 22.5 | 0.00 | 0.00 | 0.00 | 53 | 999.9 |
| 20260504220202 | 22 | 268 | 12.9 | 25.7 | 0.00 | 0.00 | 0.00 | 53 | 1000.0 |
| 20260504215702 | 22 | 294 | 11.3 | 25.7 | 0.00 | 0.00 | 0.00 | 52 | 1000.1 |
| 20260504215203 | 22 | 211 | 12.9 | 29.0 | 0.00 | 0.00 | 0.00 | 53 | 999.9 |
| 20260504214702 | 22 | 232 | 12.9 | 29.0 | 0.00 | 0.00 | 0.00 | 52 | 1000.1 |
| 20260504214202 | 22 | 189 | 12.9 | 24.1 | 0.00 | 0.00 | 0.00 | 52 | 999.9 |
| 20260504213702 | 22 | 224 | 12.9 | 29.0 | 0.00 | 0.00 | 0.00 | 52 | 999.8 |
| 20260504213202 | 21 | 213 | 12.9 | 29.0 | 0.00 | 0.00 | 0.00 | 52 | 1000.1 |
| 20260504212950 | 22 | 136 | 12.9 | 24.1 | 0.00 | 0.00 | 0.00 | 51 | 1000.1 |
| 20260504212202 | 22 | 200 | 12.9 | 30.6 | 0.00 | 0.00 | 0.00 | 51 | 1000.1 |
| 20260504211703 | 21 | 160 | 14.5 | 33.8 | 0.00 | 0.00 | 0.00 | 51 | 1000.1 |
| 20260504211202 | 22 | 236 | 12.9 | 33.8 | 0.00 | 0.00 | 0.00 | 51 | 1000.3 |
| 20260504210703 | 22 | 239 | 11.3 | 27.4 | 0.00 | 0.00 | 0.00 | 52 | 1000.3 |
| 20260504210203 | 22 | 180 | 11.3 | 24.1 | 0.00 | 0.00 | 0.00 | 51 | 1000.3 |
| 20260504205702 | 22 | 184 | 11.3 | 24.1 | 0.00 | 0.00 | 0.00 | 51 | 1000.3 |
| 20260504205201 | 22 | 218 | 11.3 | 22.5 | 0.00 | 0.00 | 0.00 | 50 | 1000.2 |
| 20260504204700 | 22 | 207 | 12.9 | 24.1 | 0.00 | 0.00 | 0.00 | 51 | 1000.3 |
| 20260504204200 | 22 | 211 | 9.7 | 24.1 | 0.00 | 0.00 | 0.00 | 51 | 1000.3 |
| 20260504203701 | 23 | 261 | 8.0 | 19.3 | 0.00 | 0.00 | 0.00 | 50 | 1000.1 |
| 20260504203521 | 23 | 198 | 9.7 | 19.3 | 0.00 | 0.00 | 0.00 | 46 | 1000.3 |
| 20260504203517 | 23 | 144 | 8.0 | 19.3 | 0.00 | 0.00 | 0.00 | 44 | 1000.0 |
| 20260504202200 | 23 | 249 | 11.3 | 24.1 | 0.00 | 0.00 | 0.00 | 46 | 1000.3 |
| 20260504201701 | 23 | 280 | 11.3 | 24.1 | 0.00 | 0.00 | 0.00 | 47 | 1000.4 |
| 20260504201205 | 23 | 229 | 9.7 | 20.9 | 0.00 | 0.00 | 0.00 | 47 | 1000.5 |
| 20260504200703 | 23 | 189 | 11.3 | 24.1 | 0.00 | 0.00 | 0.00 | 49 | 1000.4 |
| 20260504200202 | 23 | 187 | 9.7 | 24.1 | 0.00 | 0.00 | 0.00 | 44 | 1000.0 |
| 20260504195702 | 23 | 212 | 9.7 | 22.5 | 0.00 | 0.00 | 0.00 | 47 | 1000.0 |
| 20260504195201 | 23 | 190 | 9.7 | 27.4 | 0.00 | 0.00 | 0.00 | 48 | 1000.2 |
| 20260504194701 | 23 | 212 | 8.0 | 27.4 | 0.00 | 0.00 | 0.00 | 45 | 1000.2 |
| 20260504194202 | 23 | 194 | 9.7 | 29.0 | 0.00 | 0.00 | 0.00 | 46 | 1000.1 |
| 20260504193701 | 23 | 206 | 11.3 | 29.0 | 0.00 | 0.00 | 0.00 | 45 | 1000.4 |
| 20260504193202 | 23 | 212 | 9.7 | 27.4 | 0.00 | 0.00 | 0.00 | 44 | 1000.4 |
| 20260504192701 | 23 | 204 | 9.7 | 27.4 | 0.00 | 0.00 | 0.00 | 45 | 1000.4 |
| 20260504192201 | 23 | 212 | 8.0 | 20.9 | 0.00 | 0.00 | 0.00 | 47 | 1000.4 |
| 20260504191701 | 23 | 248 | 8.0 | 19.3 | 0.00 | 0.00 | 0.00 | 45 | 1000.5 |
| 20260504191201 | 23 | 233 | 9.7 | 20.9 | 0.00 | 0.00 | 0.00 | 45 | 1000.4 |
| 20260504190702 | 23 | 242 | 9.7 | 24.1 | 0.00 | 0.00 | 0.00 | 43 | 1000.5 |
| 20260504190201 | 23 | 235 | 9.7 | 24.1 | 0.00 | 0.00 | 0.00 | 44 | 1000.4 |
| 20260504185701 | 23 | 322 | 9.7 | 19.3 | 0.00 | 0.00 | 0.00 | 45 | 1000.5 |
| 20260504185201 | 23 | 226 | 9.7 | 19.3 | 0.00 | 0.00 | 0.00 | 47 | 1000.7 |
| 20260504184701 | 23 | 237 | 8.0 | 22.5 | 0.00 | 0.00 | 0.00 | 46 | 1000.7 |
| 20260504184201 | 23 | 298 | 6.4 | 22.5 | 0.00 | 0.00 | 0.00 | 45 | 1000.7 |
| 20260504183700 | 23 | 234 | 8.0 | 19.3 | 0.00 | 0.00 | 0.00 | 44 | 1000.7 |
| 20260504183200 | 23 | 227 | 9.7 | 24.1 | 0.00 | 0.00 | 0.00 | 45 | 1000.6 |
| 20260504182944 | 23 | 229 | 9.7 | 24.1 | 0.00 | 0.00 | 0.00 | 46 | 1000.8 |
| 20260504182201 | 23 | 274 | 8.0 | 20.9 | 0.00 | 0.00 | 0.00 | 47 | 1000.8 |
| 20260504181944 | 22 | 199 | 9.7 | 25.7 | 0.00 | 0.00 | 0.00 | 47 | 1000.9 |
| 20260504181201 | 22 | 218 | 9.7 | 25.7 | 0.00 | 0.00 | 0.00 | 47 | 1000.9 |
| 20260504180701 | 22 | 56 | 8.0 | 19.3 | 0.00 | 0.00 | 0.00 | 47 | 1001.0 |
| 20260504180237 | 22 | 246 | 8.0 | 22.5 | 0.00 | 0.00 | 0.00 | 49 | 1001.0 |
| 20260504180227 | 22 | 207 | 6.4 | 19.3 | 0.00 | 0.00 | 0.00 | 47 | 1001.0 |
| 20260504175200 | 22 | 83 | 6.4 | 22.5 | 0.00 | 0.00 | 0.00 | 48 | 1000.9 |
| 20260504174700 | 22 | 290 | 6.4 | 20.9 | 0.00 | 0.00 | 0.00 | 48 | 1001.0 |
| 20260504174446 | 22 | 302 | 8.0 | 20.9 | 0.00 | 0.00 | 0.00 | 49 | 1001.3 |
| 20260504173702 | 22 | 274 | 8.0 | 24.1 | 0.00 | 0.00 | 0.00 | 50 | 1001.3 |
| 20260504173202 | 22 | 192 | 8.0 | 24.1 | 0.00 | 0.00 | 0.00 | 48 | 1001.4 |
| 20260504172701 | 22 | 207 | 8.0 | 20.9 | 0.00 | 0.00 | 0.00 | 51 | 1001.4 |
| 20260504172201 | 22 | 290 | 6.4 | 20.9 | 0.00 | 0.00 | 0.00 | 51 | 1001.4 |
| 20260504171702 | 22 | 217 | 6.4 | 16.1 | 0.00 | 0.00 | 0.00 | 50 | 1001.5 |
| 20260504171201 | 22 | 233 | 8.0 | 19.3 | 0.00 | 0.00 | 0.00 | 50 | 1001.5 |
| 20260504170701 | 21 | 322 | 8.0 | 19.3 | 0.00 | 0.00 | 0.00 | 51 | 1001.6 |
| 20260504170203 | 21 | 110 | 6.4 | 19.3 | 0.00 | 0.00 | 0.00 | 51 | 1001.7 |
| 20260504160201 | 20 | 224 | 6.4 | 14.5 | 0.00 | 0.00 | 0.00 | 54 | 1001.9 |
| 20260504150701 | 18 | 207 | 8.0 | 16.1 | 0.00 | 0.00 | 0.00 | 59 | 1002.4 |
| 20260504150200 | 17 | 271 | 8.0 | 19.3 | 0.00 | 0.00 | 0.00 | 61 | 1002.4 |
| 20260504141200 | 16 | 220 | 6.4 | 16.1 | 0.00 | 0.00 | 0.00 | 63 | 1002.7 |
| 20260504140700 | 16 | 195 | 6.4 | 17.7 | 0.00 | 0.00 | 0.00 | 64 | 1002.8 |
| 20260504140201 | 16 | 243 | 8.0 | 17.7 | 0.00 | 0.00 | 0.00 | 64 | 1002.9 |
| 20260504130701 | 13 | 98 | 6.4 | 17.7 | 0.00 | 0.00 | 0.00 | 70 | 1003.4 |
| 20260504130202 | 13 | 204 | 6.4 | 17.7 | 0.00 | 0.00 | 0.00 | 70 | 1003.4 |
| 20260504120202 | 10 | 197 | 8.0 | 14.5 | 0.00 | 0.00 | 0.00 | 78 | 1004.1 |
| 20260504110701 | 8 | 210 | 6.4 | 14.5 | 0.00 | 0.00 | 0.00 | 81 | 1004.1 |
| 20260504110203 | 8 | 245 | 6.4 | 14.5 | 0.00 | 0.00 | 0.00 | 81 | 1004.2 |
| 20260504100202 | 8 | 249 | 6.4 | 14.5 | 0.00 | 0.00 | 0.00 | 81 | 1004.3 |
| 20260504081701 | 8 | 215 | 4.8 | 14.5 | 0.00 | 0.00 | 0.00 | 78 | 1005.0 |
| 20260504081235 | 8 | 228 | 4.8 | 14.5 | 0.00 | 0.00 | 0.00 | 78 | 1005.1 |
| 20260504081225 | 8 | 223 | 4.8 | 14.5 | 0.00 | 0.00 | 0.00 | 78 | 1005.1 |
| 20260504080203 | 8 | 212 | 4.8 | 14.5 | 0.00 | 0.00 | 0.00 | 78 | 1005.1 |
| 20260504070239 | 10 | 266 | 6.4 | 16.1 | 0.00 | 0.00 | 0.00 | 76 | 1006.1 |
| 20260504070229 | 9 | 192 | 4.8 | 12.9 | 0.00 | 0.00 | 0.00 | 77 | 1006.0 |
| 20260504060201 | 10 | 241 | 4.8 | 12.9 | 0.00 | 0.00 | 0.00 | 74 | 1006.4 |
| 20260504050701 | 10 | 211 | 4.8 | 12.9 | 0.00 | 0.00 | 0.00 | 72 | 1007.1 |
| 20260504050202 | 10 | 157 | 6.4 | 12.9 | 0.00 | 0.00 | 0.00 | 71 | 1007.1 |
| 20260504045702 | 10 | 219 | 6.4 | 19.3 | 0.00 | 0.00 | 0.00 | 71 | 1007.1 |